Snowfall_Accumulation
0.0 0.0 0.0 0.0 0.0 0.0 0.0 0.0 0.0 0.0 0.0 0.0 0.0 0.0 0.0 0.0 0.0 0.0 0.0 0.0 0.0 0.0 0.0 0.0 0.0 0.0 0.0 0.0 0.0 0.0 0.0 0.0 0.0 0.0 0.0 0.0 0.0 0.0 0.0 0.0 0.0 0.0 0.0 0.0 0.0 0.0 0.0 0.0 0.0
0.0 0.0 0.0 0.0 0.0 0.1 0.0 0.0 0.0 0.0 0.0 0.0 0.0 0.1 0.1 0.0 0.0 0.0 0.0 0.0 0.0 0.0 0.0 0.0 0.0 0.0 0.0 0.0 0.0 0.0 0.0 0.0 0.0 0.0 0.0 0.0 0.0 0.0 0.0 0.0 0.0 0.0 0.0 0.0 0.0 0.0 0.0 0.0 0.0
0.0 0.0 0.0 0.0 0.0 0.0 0.1 0.0 0.0 0.0 0.0 0.0 0.0 0.1 0.1 0.1 0.0 0.0 0.0 0.0 0.0 0.0 0.0 0.0 0.0 0.0 0.0 0.0 0.0 0.0 0.0 0.0 0.0 0.0 0.0 0.0 0.0 0.0 0.0 0.0 0.0 0.0 0.0 0.0 0.0 0.0 0.0 0.0 0.0
0.0 0.0 0.0 0.0 0.0 0.1 0.1 0.1 0.0 0.0 0.0 0.0 0.0 0.1 0.0 0.0 0.0 0.0 0.0 0.0 0.0 0.0 0.0 0.0 0.0 0.0 0.0 0.0 0.0 0.0 0.0 0.0 0.0 0.0 0.0 0.0 0.0 0.0 0.0 0.0 0.0 0.0 0.0 0.0 0.0 0.0 0.0 0.0 0.0
0.0 0.0 0.0 0.1 0.0 0.0 0.1 0.1 0.0 0.0 0.0 0.0 0.0 0.1 0.1 0.0 0.0 0.0 0.0 0.0 0.0 0.0 0.0 0.0 0.0 0.0 0.0 0.0 0.0 0.0 0.0 0.0 0.0 0.0 0.0 0.0 0.0 0.0 0.0 0.0 0.0 0.0 0.0 0.0 0.0 0.0 0.0 0.0 0.0
0.0 0.0 0.3 0.3 0.1 0.0 0.0 0.1 0.0 0.0 0.0 0.0 0.0 0.1 0.0 0.0 0.0 0.0 0.0 0.0 0.0 0.0 0.0 0.0 0.0 0.0 0.0 0.0 0.0 0.0 0.0 0.0 0.0 0.0 0.0 0.0 0.0 0.0 0.0 0.0 0.0 0.0 0.0 0.0 0.0 0.0 0.0 0.0 0.0
0.0 0.0 0.6 0.5 0.4 0.1 0.0 0.0 0.1 0.0 0.0 0.0 0.0 0.1 0.1 0.0 0.0 0.0 0.0 0.0 0.0 0.0 0.0 0.0 0.0 0.0 0.0 0.0 0.0 0.0 0.0 0.0 0.0 0.0 0.0 0.0 0.0 0.0 0.0 0.0 0.0 0.0 0.0 0.0 0.0 0.0 0.0 0.0 0.0
0.0 0.0 0.7 0.4 0.4 0.1 0.1 0.1 0.1 0.1 0.0 0.0 0.0 0.0 0.1 0.0 0.0 0.0 0.0 0.0 0.0 0.0 0.0 0.0 0.0 0.0 0.0 0.0 0.0 0.0 0.0 0.0 0.0 0.0 0.0 0.0 0.0 0.0 0.0 0.0 0.0 0.0 0.0 0.0 0.0 0.0 0.0 0.0 0.0
0.0 0.7 1.3 0.6 0.3 0.2 0.1 0.2 0.1 0.0 0.0 0.0 0.0 0.1 0.0 0.0 0.0 0.0 0.0 0.0 0.0 0.0 0.0 0.0 0.0 0.0 0.0 0.0 0.0 0.0 0.0 0.0 0.0 0.0 0.0 0.0 0.0 0.0 0.0 0.0 0.0 0.0 0.0 0.0 0.0 0.0 0.0 0.0 0.0
0.0 1.9 1.3 0.2 0.1 0.1 0.1 0.2 0.1 0.1 0.1 0.1 0.0 0.0 0.0 0.0 0.0 0.0 0.0 0.0 0.0 0.0 0.0 0.0 0.0 0.0 0.0 0.0 0.0 0.0 0.0 0.0 0.0 0.0 0.0 0.0 0.0 0.0 0.0 0.0 0.0 0.0 0.0 0.0 0.0 0.0 0.0 0.0 0.0
0.2 1.0 0.6 0.3 0.1 0.1 0.1 0.1 0.1 0.1 0.2 0.2 0.2 0.2 0.1 0.0 0.0 0.1 0.1 0.0 0.0 0.0 0.0 0.0 0.0 0.0 0.0 0.0 0.0 0.0 0.0 0.0 0.0 0.0 0.0 0.0 0.0 0.0 0.0 0.0 0.0 0.0 0.0 0.0 0.0 0.0 0.0 0.0 0.0
0.6 0.4 0.5 0.4 0.1 0.1 0.1 0.1 0.1 0.2 0.4 0.2 0.2 0.2 0.1 0.0 0.0 0.0 0.1 0.0 0.0 0.0 0.0 0.0 0.0 0.0 0.0 0.0 0.0 0.0 0.0 0.0 0.0 0.0 0.0 0.0 0.0 0.0 0.0 0.0 0.0 0.0 0.0 0.0 0.0 0.0 0.0 0.0 0.0
1.0 0.5 0.3 0.1 0.1 0.2 0.1 0.1 0.1 0.2 0.3 0.2 0.1 0.1 0.1 0.1 0.1 0.0 0.0 0.0 0.0 0.0 0.0 0.0 0.0 0.0 0.0 0.0 0.0 0.0 0.0 0.0 0.0 0.0 0.0 0.0 0.0 0.0 0.0 0.0 0.0 0.0 0.0 0.0 0.0 0.0 0.0 0.0 0.0
0.7 0.5 0.3 0.2 0.2 0.2 0.2 0.1 0.2 0.3 0.2 0.2 0.1 0.1 0.1 0.1 0.1 0.0 0.0 0.0 0.0 0.0 0.0 0.0 0.0 0.0 0.0 0.0 0.0 0.0 0.0 0.0 0.0 0.0 0.0 0.0 0.0 0.0 0.0 0.0 0.0 0.0 0.0 0.0 0.0 0.0 0.0 0.0 0.0
0.3 0.7 0.5 0.3 0.2 0.2 0.2 0.3 0.4 0.4 0.4 0.3 0.2 0.1 0.1 0.1 0.1 0.0 0.0 0.0 0.0 0.0 0.0 0.0 0.0 0.0 0.0 0.0 0.0 0.0 0.0 0.0 0.0 0.1 0.0 0.0 0.0 0.0 0.0 0.0 0.0 0.0 0.0 0.0 0.0 0.0 0.0 0.0 0.0
0.6 1.6 2.2 0.7 0.3 0.2 1.2 2.7 0.5 0.4 0.3 0.2 0.1 0.1 0.1 0.0 0.0 0.0 0.0 0.0 0.0 0.0 0.0 0.0 0.0 0.0 0.0 0.0 0.0 0.0 0.0 0.0 0.0 0.0 0.0 0.0 0.0 0.0 0.0 0.0 0.0 0.0 0.0 0.0 0.0 0.0 0.0 0.0 0.0
4.1 4.3 2.7 1.4 0.3 0.5 1.9 2.4 0.6 0.3 0.2 0.2 0.2 0.2 0.1 0.1 0.0 0.0 0.1 0.0 0.0 0.0 0.0 0.0 0.0 0.0 0.0 0.0 0.0 0.0 0.0 0.0 0.0 0.0 0.0 0.0 0.0 0.0 0.0 0.0 0.1 0.0 0.0 0.0 0.0 0.0 0.0 0.0 0.0
5.2 3.8 2.3 1.5 0.7 1.1 2.0 1.7 0.5 0.2 0.1 0.1 0.1 0.1 0.1 0.2 0.0 0.0 0.0 0.0 0.0 0.0 0.0 0.0 0.0 0.0 0.0 0.0 0.0 0.0 0.0 0.0 0.0 0.0 0.1 0.1 0.0 0.0 0.0 0.0 0.0 0.0 0.0 0.0 0.0 0.1 0.1 0.0 0.0
3.4 3.8 3.0 1.5 0.5 1.7 1.9 1.2 0.6 0.2 0.1 0.2 0.1 0.1 0.1 0.1 0.1 0.0 0.0 0.0 0.0 0.0 0.0 0.0 0.0 0.0 0.0 0.0 0.0 0.0 0.0 0.0 0.0 0.0 0.1 0.0 0.1 0.0 0.0 0.0 0.0 0.0 0.0 0.2 0.0 0.1 0.2 0.1 0.1
3.8 5.3 4.0 2.3 1.0 2.0 2.0 1.1 0.5 0.3 0.3 0.3 0.3 0.3 0.3 0.2 0.0 0.0 0.0 0.0 0.0 0.0 0.0 0.0 0.0 0.0 0.0 0.0 0.0 0.0 0.0 0.0 0.0 0.0 0.0 0.2 0.1 0.0 0.0 0.0 0.0 0.1 0.0 0.2 0.1 0.2 0.4 0.3 0.1
4.6 4.4 3.8 3.6 2.3 1.9 3.3 2.2 0.9 0.4 0.3 0.2 0.1 0.2 0.3 0.4 0.5 0.1 0.0 0.0 0.4 0.0 0.0 0.0 0.0 0.0 0.0 0.0 0.0 0.0 0.0 0.0 0.0 0.0 0.0 0.1 0.2 0.1 0.0 0.0 0.0 0.0 0.0 0.2 0.2 0.2 0.6 0.8 0.5
5.2 1.9 2.6 3.5 5.9 6.2 4.7 7.0 1.4 0.9 0.7 0.5 0.3 0.2 0.2 0.3 0.4 0.2 0.1 0.1 0.1 0.7 0.1 0.3 0.0 0.0 0.0 0.0 0.0 0.0 0.0 0.0 0.0 0.0 0.0 0.1 0.1 0.1 0.1 0.0 0.0 0.0 0.0 0.2 0.2 0.2 0.5 1.2 1.4
3.5 1.7 2.4 3.8 7.0 8.8 4.8 7.6 2.4 1.2 1.3 1.1 0.5 0.4 0.3 0.3 0.3 0.3 0.2 0.3 0.1 0.7 0.6 0.4 0.1 0.0 0.0 0.0 0.0 0.0 0.0 0.0 0.0 0.0 0.0 0.1 0.1 0.1 0.1 0.0 0.0 0.1 0.1 0.1 0.2 0.3 0.5 1.0 1.7
2.2 2.6 3.1 4.8 9.4 17.3 5.6 6.1 3.9 2.5 2.7 2.0 1.0 0.7 0.7 0.6 0.4 0.4 0.2 0.1 0.1 0.0 0.1 0.1 0.1 0.1 0.0 0.0 0.0 0.0 0.1 0.0 0.0 0.0 0.0 0.0 0.1 0.1 0.1 0.1 0.0 0.1 0.2 0.3 0.3 0.5 0.7 0.9 1.2
5.0 11.5 21.8 23.7 24.2 14.0 2.3 4.3 4.4 2.8 2.5 2.8 2.9 2.2 1.6 1.1 0.6 0.5 0.5 0.4 0.2 0.1 0.2 0.2 0.2 0.1 0.1 0.1 0.2 0.0 0.3 0.3 0.0 0.0 0.0 0.1 0.2 0.2 0.2 0.2 0.1 0.3 0.2 0.4 0.6 0.7 0.9 0.9 1.3
5.2 9.6 17.3 16.3 10.9 5.0 2.9 4.4 3.9 3.0 2.6 2.4 2.5 2.3 1.4 0.9 0.6 0.6 0.6 0.6 0.2 0.2 0.2 0.2 0.2 0.2 0.1 0.1 0.2 0.2 0.0 0.3 0.0 0.0 0.1 0.1 0.2 0.1 0.2 0.3 0.2 0.3 0.3 0.5 0.8 0.8 0.9 1.0 1.4
6.8 7.9 6.5 11.3 8.8 5.7 4.6 3.9 2.9 2.0 1.7 1.9 2.3 2.0 2.0 1.2 0.9 0.6 0.9 0.8 0.8 0.5 0.4 0.5 0.3 0.3 0.2 0.1 0.1 0.2 0.2 0.2 0.4 0.1 0.1 0.1 0.1 0.1 0.3 0.3 0.6 0.6 0.8 0.9 1.3 1.2 1.2 1.3 1.5
4.1 5.9 8.3 15.4 14.1 8.4 5.1 3.7 4.5 3.3 2.5 2.2 2.4 2.9 2.5 2.0 1.2 0.9 0.9 1.0 0.6 0.7 0.6 0.4 0.4 0.4 0.3 0.2 0.1 0.1 0.2 0.3 0.3 0.2 0.2 0.2 0.2 0.2 0.4 0.3 0.7 0.6 1.0 1.2 1.5 1.4 1.4 1.6 1.6
6.5 8.5 10.4 12.3 10.4 9.3 7.1 5.7 5.6 4.5 4.0 3.6 3.1 3.0 3.0 2.9 2.7 1.9 1.2 1.0 1.0 0.6 0.5 0.6 0.6 0.3 0.4 0.3 0.3 0.2 0.3 0.2 0.3 0.4 0.4 0.4 0.4 0.6 0.6 0.9 1.1 1.4 1.5 1.5 1.3 1.5 1.7 1.8 1.7
6.5 8.2 9.8 13.9 10.6 6.5 6.9 6.3 4.3 3.5 3.7 3.5 3.3 3.0 2.8 3.2 3.4 2.9 2.1 1.7 1.0 1.3 1.2 1.0 0.9 0.9 0.7 0.4 0.7 0.6 0.4 0.6 0.7 0.7 0.6 0.6 0.6 0.8 1.0 1.5 1.4 1.5 1.9 2.0 2.3 2.2 2.1 2.1 2.2